| time (UTC) | temp C | wind direction | speed KPH | gust KPH | rain 1hr cm | rain 24hr cm | rain mn cm | humidity % | barometer mb |
| 20260502123039 | 18 | 0 | 0.0 | 1.6 | 0.00 | 0.00 | 0.00 | 31 | 1012.0 |
| 20260502121539 | 19 | 285 | 0.0 | 1.6 | 0.00 | 0.00 | 0.00 | 31 | 1011.9 |
| 20260502114538 | 20 | 0 | 0.0 | 1.6 | 0.00 | 0.00 | 0.00 | 30 | 1011.6 |
| 20260502113048 | 19 | 0 | 0.0 | 0.0 | 0.00 | 0.00 | 0.00 | 34 | 1011.6 |
| 20260502111540 | 18 | 0 | 0.0 | 0.0 | 0.00 | 0.00 | 0.00 | 34 | 1011.6 |
| 20260502110038 | 20 | 0 | 0.0 | 0.0 | 0.00 | 0.00 | 0.00 | 32 | 1011.5 |
| 20260502104536 | 20 | 0 | 0.0 | 0.0 | 0.00 | 0.00 | 0.00 | 30 | 1011.3 |
| 20260502103032 | 20 | 0 | 0.0 | 0.0 | 0.00 | 0.00 | 0.00 | 30 | 1011.2 |
| 20260502101537 | 21 | 0 | 0.0 | 1.6 | 0.00 | 0.00 | 0.00 | 28 | 1011.2 |
| 20260502090106 | 23 | 236 | 4.8 | 8.0 | 0.00 | 0.00 | 0.00 | 25 | 1010.8 |
| 20260502070050 | 21 | 197 | 0.0 | 3.2 | 0.00 | 0.00 | 0.00 | 32 | 1010.8 |
| 20260502064554 | 21 | 186 | 1.6 | 3.2 | 0.00 | 0.00 | 0.00 | 34 | 1010.7 |
| 20260502063048 | 21 | 0 | 0.0 | 1.6 | 0.00 | 0.00 | 0.00 | 37 | 1010.6 |
| 20260502061539 | 21 | 0 | 0.0 | 0.0 | 0.00 | 0.00 | 0.00 | 35 | 1010.5 |
| 20260502060038 | 21 | 0 | 0.0 | 1.6 | 0.00 | 0.00 | 0.00 | 34 | 1010.2 |
| 20260502054538 | 22 | 0 | 0.0 | 0.0 | 0.00 | 0.00 | 0.00 | 34 | 1010.2 |
| 20260502053038 | 22 | 0 | 0.0 | 1.6 | 0.00 | 0.00 | 0.00 | 30 | 1010.1 |
| 20260502051537 | 23 | 233 | 0.0 | 3.2 | 0.00 | 0.00 | 0.00 | 31 | 1010.0 |
| 20260502050040 | 22 | 0 | 0.0 | 0.0 | 0.00 | 0.00 | 0.00 | 34 | 1009.9 |
| 20260502044535 | 22 | 0 | 0.0 | 0.0 | 0.00 | 0.00 | 0.00 | 32 | 1009.9 |
| 20260502043039 | 23 | 0 | 0.0 | 1.6 | 0.00 | 0.00 | 0.00 | 30 | 1009.9 |
| 20260502041543 | 23 | 0 | 0.0 | 0.0 | 0.00 | 0.00 | 0.00 | 29 | 1009.7 |
| 20260502040038 | 23 | 0 | 0.0 | 0.0 | 0.00 | 0.00 | 0.00 | 30 | 1009.6 |
| 20260502034537 | 24 | 0 | 0.0 | 0.0 | 0.00 | 0.00 | 0.00 | 27 | 1009.4 |
| 20260502033039 | 24 | 0 | 0.0 | 0.0 | 0.00 | 0.00 | 0.00 | 26 | 1009.2 |
| 20260502031534 | 25 | 0 | 0.0 | 0.0 | 0.00 | 0.00 | 0.00 | 25 | 1009.1 |
| 20260502030040 | 26 | 0 | 0.0 | 0.0 | 0.00 | 0.00 | 0.00 | 22 | 1008.8 |
| 20260502024546 | 27 | 0 | 0.0 | 1.6 | 0.00 | 0.00 | 0.00 | 22 | 1008.6 |
| 20260502023046 | 28 | 0 | 0.0 | 1.6 | 0.00 | 0.00 | 0.00 | 21 | 1008.5 |
| 20260502021539 | 28 | 0 | 0.0 | 1.6 | 0.00 | 0.00 | 0.00 | 20 | 1008.4 |
| 20260502020038 | 29 | 136 | 1.6 | 8.0 | 0.00 | 0.00 | 0.00 | 19 | 1008.2 |
| 20260502014538 | 30 | 126 | 3.2 | 6.4 | 0.00 | 0.00 | 0.00 | 18 | 1008.2 |
| 20260502013037 | 31 | 162 | 3.2 | 6.4 | 0.00 | 0.00 | 0.00 | 18 | 1008.2 |
| 20260502011534 | 31 | 137 | 3.2 | 11.3 | 0.00 | 0.00 | 0.00 | 17 | 1008.2 |
| 20260502010041 | 31 | 157 | 3.2 | 8.0 | 0.00 | 0.00 | 0.00 | 17 | 1008.3 |
| 20260502004538 | 31 | 153 | 3.2 | 8.0 | 0.00 | 0.00 | 0.00 | 17 | 1008.3 |
| 20260502003038 | 31 | 131 | 3.2 | 11.3 | 0.00 | 0.00 | 0.00 | 17 | 1008.2 |
| 20260502001538 | 31 | 141 | 4.8 | 14.5 | 0.00 | 0.00 | 0.00 | 17 | 1008.3 |
| 20260502000059 | 31 | 127 | 3.2 | 8.0 | 0.00 | 0.00 | 0.00 | 19 | 1008.3 |
| 20260501234536 | 31 | 149 | 6.4 | 12.9 | 0.00 | 0.00 | 0.00 | 18 | 1008.4 |
| 20260501233036 | 31 | 137 | 4.8 | 17.7 | 0.00 | 0.00 | 0.00 | 18 | 1008.4 |
| 20260501231539 | 31 | 141 | 1.6 | 12.9 | 0.00 | 0.00 | 0.00 | 19 | 1008.5 |
| 20260501230039 | 31 | 156 | 4.8 | 11.3 | 0.00 | 0.00 | 0.00 | 21 | 1008.6 |
| 20260501224558 | 31 | 124 | 4.8 | 14.5 | 0.00 | 0.00 | 0.00 | 18 | 1008.7 |
| 20260501223038 | 31 | 133 | 4.8 | 14.5 | 0.00 | 0.00 | 0.00 | 20 | 1009.1 |
| 20260501221534 | 31 | 145 | 1.6 | 12.9 | 0.00 | 0.00 | 0.00 | 21 | 1009.1 |
| 20260501220043 | 31 | 84 | 8.0 | 12.9 | 0.00 | 0.00 | 0.00 | 20 | 1009.3 |
| 20260501214538 | 31 | 143 | 4.8 | 14.5 | 0.00 | 0.00 | 0.00 | 20 | 1009.4 |
| 20260501213042 | 31 | 136 | 1.6 | 9.7 | 0.00 | 0.00 | 0.00 | 21 | 1009.7 |
| 20260501211537 | 30 | 127 | 3.2 | 16.1 | 0.00 | 0.00 | 0.00 | 22 | 1009.9 |
| 20260501210038 | 31 | 79 | 3.2 | 11.3 | 0.00 | 0.00 | 0.00 | 20 | 1010.2 |
| 20260501204535 | 30 | 136 | 3.2 | 8.0 | 0.00 | 0.00 | 0.00 | 23 | 1010.2 |
| 20260501203039 | 30 | 75 | 3.2 | 12.9 | 0.00 | 0.00 | 0.00 | 22 | 1010.6 |
| 20260501201538 | 30 | 141 | 3.2 | 9.7 | 0.00 | 0.00 | 0.00 | 23 | 1010.6 |
| 20260501200044 | 29 | 229 | 1.6 | 11.3 | 0.00 | 0.00 | 0.00 | 24 | 1010.8 |
| 20260501194551 | 28 | 122 | 4.8 | 9.7 | 0.00 | 0.00 | 0.00 | 27 | 1010.9 |
| 20260501193037 | 29 | 132 | 3.2 | 12.9 | 0.00 | 0.00 | 0.00 | 26 | 1011.1 |
| 20260501191545 | 28 | 153 | 1.6 | 8.0 | 0.00 | 0.00 | 0.00 | 27 | 1011.3 |
| 20260501190039 | 28 | 103 | 3.2 | 8.0 | 0.00 | 0.00 | 0.00 | 26 | 1011.5 |
| 20260501184535 | 28 | 148 | 3.2 | 9.7 | 0.00 | 0.00 | 0.00 | 27 | 1011.7 |
| 20260501183040 | 28 | 117 | 3.2 | 8.0 | 0.00 | 0.00 | 0.00 | 27 | 1011.9 |
| 20260501181537 | 28 | 138 | 1.6 | 4.8 | 0.00 | 0.00 | 0.00 | 29 | 1012.0 |
| 20260501180038 | 27 | 196 | 0.0 | 9.7 | 0.00 | 0.00 | 0.00 | 29 | 1012.3 |
| 20260501174538 | 27 | 148 | 1.6 | 11.3 | 0.00 | 0.00 | 0.00 | 31 | 1012.4 |
| 20260501173101 | 27 | 143 | 1.6 | 6.4 | 0.00 | 0.00 | 0.00 | 30 | 1012.4 |
| 20260501171541 | 26 | 143 | 3.2 | 8.0 | 0.00 | 0.00 | 0.00 | 31 | 1012.5 |
| 20260501170045 | 26 | 134 | 1.6 | 6.4 | 0.00 | 0.00 | 0.00 | 33 | 1012.4 |
| 20260501164540 | 26 | 140 | 1.6 | 8.0 | 0.00 | 0.00 | 0.00 | 34 | 1012.5 |
| 20260501163037 | 25 | 147 | 3.2 | 9.7 | 0.00 | 0.00 | 0.00 | 35 | 1012.6 |
| 20260501161536 | 25 | 168 | 0.0 | 6.4 | 0.00 | 0.00 | 0.00 | 34 | 1012.5 |
| 20260501160041 | 25 | 153 | 3.2 | 8.0 | 0.00 | 0.00 | 0.00 | 35 | 1012.4 |
| 20260501154548 | 25 | 136 | 1.6 | 6.4 | 0.00 | 0.00 | 0.00 | 35 | 1012.3 |
| 20260501153035 | 24 | 124 | 3.2 | 8.0 | 0.00 | 0.00 | 0.00 | 36 | 1012.2 |
| 20260501151537 | 23 | 143 | 3.2 | 9.7 | 0.00 | 0.00 | 0.00 | 37 | 1012.1 |
| 20260501150043 | 22 | 40 | 4.8 | 11.3 | 0.00 | 0.00 | 0.00 | 38 | 1011.9 |
| 20260501144551 | 22 | 122 | 3.2 | 11.3 | 0.00 | 0.00 | 0.00 | 40 | 1011.9 |
| 20260501143041 | 22 | 4 | 3.2 | 8.0 | 0.00 | 0.00 | 0.00 | 40 | 1011.8 |
| 20260501141536 | 21 | 0 | 0.0 | 4.8 | 0.00 | 0.00 | 0.00 | 44 | 1011.7 |
| 20260501140048 | 20 | 280 | 1.6 | 4.8 | 0.00 | 0.00 | 0.00 | 44 | 1011.5 |
| 20260501134546 | 19 | 252 | 3.2 | 6.4 | 0.00 | 0.00 | 0.00 | 45 | 1011.3 |